Back to catalog

STARLINK-34888

AliveCommunicationsVLEO
NORAD 65471·PAYLOAD·🇺🇸 United States

Launched Sep 3, 2025 from Cape Canaveral Space Force Station

Loading…

Next Passes (next 24 hours)

TLE

FreshSource: CelesTrak SupGP

Epoch: Sep 14, 2026, 23:07 UTC

1 65471C 25195P   26257.96368056  .00047861  00000+0  14151-2 0  2576
2 65471  53.1573  95.7435 0001166  85.6330  93.6855 15.34344573    17

Track STARLINK-34888 in real time with AllMySat

Download on the App Store